Stations météo

Publicité
Cap Cepet, France (7661): Température de l'air & dewpoint: 15.10.2017 19:00:00 - 21.10.2017 19:00:00 (CEST)Cap Cepet, France (7661): Vitesse du vent & gusts: 15.10.2017 19:00:00 - 21.10.2017 19:00:00 (CEST)Cap Cepet, France (7661): Direction du vent: 15.10.2017 19:00:00 - 21.10.2017 19:00:00 (CEST)Cap Cepet, France (7661): reduced air pressure: 15.10.2017 19:00:00 - 21.10.2017 19:00:00 (CEST)Cap Cepet, France (7661): visibility: 15.10.2017 19:00:00 - 21.10.2017 19:00:00 (CEST)Cap Cepet, France (7661): Quantités de précipitations: 15.10.2017 19:00:00 - 21.10.2017 19:00:00 (CEST)
Date & Time tt [°C] td [°C] ff [km/h] ff [knt] fx [km/h] fx [knt] dd ppp [hPa] vv [km] rr [mm]
21.10.2017 19:00:00 18,8 17,5 13 7 21 11 W 1018,9 - 0,0
21.10.2017 18:00:00 19,3 18,1 13 7 26 14 SW 1018,9 - 0,0
21.10.2017 17:00:00 20,0 18,0 15 8 26 14 SW 1019,0 15 0,0
21.10.2017 16:00:00 21,8 17,4 9 5 27 14 WSW 1018,8 - 0,0
21.10.2017 15:00:00 22,6 17,5 15 8 26 14 SSW 1019,0 - 0,0
21.10.2017 14:00:00 22,7 16,7 13 7 23 13 SSW 1019,8 - 0,0
21.10.2017 13:00:00 22,4 16,9 11 6 30 16 SW 1020,7 - 0,0
21.10.2017 12:00:00 21,9 16,4 10 6 17 9 SSW 1021,2 - 0,0
21.10.2017 11:00:00 19,7 16,0 9 5 14 8 SSW 1021,2 15 0,0
21.10.2017 10:00:00 20,2 14,8 4 2 8 5 SSW 1020,8 - 0,0
21.10.2017 09:00:00 18,1 14,0 3 1 6 4 NE 1020,5 - 0,0
21.10.2017 08:00:00 16,5 15,0 4 2 7 4 ENE 1020,2 - 0,0
21.10.2017 07:00:00 16,6 15,0 5 3 14 8 E 1020,1 - 0,0
21.10.2017 06:00:00 15,5 13,7 9 5 21 11 ENE 1019,9 - 0,0
21.10.2017 05:00:00 15,2 14,1 14 8 19 10 ENE 1019,8 20 0,0
21.10.2017 04:00:00 15,4 14,9 11 6 14 8 ENE 1020,0 - 0,0
21.10.2017 03:00:00 16,2 15,9 5 3 8 5 NNE 1020,2 - 0,0
21.10.2017 02:00:00 16,7 16,4 2 1 8 4 NNE 1020,6 - 0,2
21.10.2017 01:00:00 17,0 16,7 6 4 9 5 ENE 1020,4 - 0,0
21.10.2017 00:00:00 17,1 16,6 7 4 9 5 E 1020,4 - 0,0
20.10.2017 23:00:00 17,7 17,2 4 2 5 3 SSE 1020,5 - 0,0
20.10.2017 22:00:00 17,7 17,2 0 0 9 5 N 1020,5 - 0,0
20.10.2017 21:00:00 17,9 17,3 8 5 11 6 S 1020,2 - 0,0
20.10.2017 20:00:00 18,0 17,0 8 4 11 6 S 1019,8 15 0,0
20.10.2017 19:00:00 18,4 16,7 5 3 18 10 S 1019,4 - 0,0
20.10.2017 18:00:00 19,9 16,7 11 6 20 11 SSE 1018,8 - 0,0
20.10.2017 17:00:00 21,5 16,0 10 5 22 12 ESE 1018,4 18 0,0
20.10.2017 16:00:00 22,5 15,6 10 5 29 16 ESE 1018,1 - 0,0
20.10.2017 15:00:00 22,6 16,2 15 8 37 20 E 1017,9 - 0,0
20.10.2017 14:00:00 21,4 15,5 21 11 40 21 E 1018,3 - 0,0
20.10.2017 13:00:00 21,7 14,8 20 11 37 20 E 1018,7 - 0,0
20.10.2017 12:00:00 21,8 14,9 21 11 46 25 E 1018,6 - 0,0
20.10.2017 11:00:00 21,5 13,7 29 15 49 26 NE 1018,2 15 0,0
20.10.2017 10:00:00 20,1 13,1 29 16 41 22 NE 1017,9 - 0,0
20.10.2017 09:00:00 18,2 12,6 29 16 41 22 NE 1017,6 - 0,0
20.10.2017 08:00:00 17,7 12,6 28 15 41 22 NE 1016,7 - 0,0
20.10.2017 07:00:00 17,5 13,0 29 16 41 22 NE 1016,3 - 0,0
20.10.2017 06:00:00 17,7 13,4 26 14 39 21 NE 1016,1 - 0,0
20.10.2017 05:00:00 17,7 13,8 27 15 49 26 NE 1015,6 15 0,0
20.10.2017 04:00:00 17,6 13,9 38 21 54 29 NE 1014,4 - 0,0
20.10.2017 03:00:00 17,3 14,4 35 19 49 26 NE 1015,2 - 0,0
20.10.2017 02:00:00 17,0 14,3 34 18 49 26 NE 1015,0 - 0,0
20.10.2017 01:00:00 16,7 14,2 35 19 48 26 NE 1014,8 - 0,0
20.10.2017 00:00:00 16,8 14,1 29 16 48 26 NE 1015,0 - 0,0
19.10.2017 23:00:00 16,8 13,7 36 19 50 27 NE 1014,2 - 0,0
19.10.2017 22:00:00 17,1 13,8 33 18 58 31 NE 1014,4 - 0,0
19.10.2017 21:00:00 17,6 13,9 44 24 61 33 NE 1013,6 - 0,0
19.10.2017 20:00:00 17,8 14,3 41 22 58 31 NE 1013,7 15 0,0
19.10.2017 19:00:00 18,2 14,5 32 17 61 33 NE 1013,2 - 0,0
19.10.2017 18:00:00 19,0 15,1 44 24 67 36 NE 1012,6 - 0,0
19.10.2017 17:00:00 19,3 15,8 40 21 72 39 NE 1012,9 - 0,0
19.10.2017 16:00:00 19,9 15,5 38 20 68 37 ENE 1013,3 - 0,0
19.10.2017 15:00:00 20,6 15,6 39 21 73 39 ENE 1013,6 - 0,0
19.10.2017 14:00:00 19,9 15,5 39 21 69 38 ENE 1013,9 15 0,0
19.10.2017 13:00:00 20,9 15,7 40 22 79 42 NE 1014,8 - 0,0
19.10.2017 12:00:00 20,7 15,7 39 21 69 37 ENE 1015,0 - 0,0
19.10.2017 11:00:00 20,5 15,5 40 21 73 40 NE 1014,7 15 0,0
19.10.2017 10:00:00 18,8 15,5 31 17 43 23 NE 1015,1 - 0,0
19.10.2017 09:00:00 17,5 15,5 29 16 42 23 NE 1015,1 - 0,0
19.10.2017 08:00:00 16,9 15,1 29 16 44 24 NE 1014,8 - 0,0
19.10.2017 07:00:00 17,0 14,8 27 15 40 22 NE 1015,1 - 0,0
19.10.2017 06:00:00 16,6 15,0 29 16 46 25 NE 1015,4 - 0,0
19.10.2017 05:00:00 16,4 14,6 31 17 47 25 NE 1015,0 - 0,0
19.10.2017 04:00:00 16,5 14,3 31 17 47 26 NE 1015,0 - 0,0
19.10.2017 03:00:00 16,8 14,3 30 16 45 24 NE 1015,4 - 0,0
19.10.2017 02:00:00 16,5 14,1 33 18 45 25 NE 1015,7 - 0,0
19.10.2017 01:00:00 16,3 14,0 27 15 39 21 NE 1016,1 - 0,0
19.10.2017 00:00:00 15,9 13,9 27 15 42 23 NE 1016,5 - 0,0
18.10.2017 23:00:00 16,0 13,8 30 16 42 23 NE 1016,7 - 0,0
18.10.2017 22:00:00 16,4 14,1 30 16 44 24 NE 1016,7 - 0,0
18.10.2017 21:00:00 17,2 15,0 27 15 44 24 NE 1016,7 - 0,0
18.10.2017 20:00:00 17,4 15,0 27 15 49 26 NE 1016,3 - 0,0
18.10.2017 19:00:00 17,7 15,0 27 15 42 23 NE 1016,3 - 0,0
18.10.2017 18:00:00 18,0 15,1 19 10 41 22 ENE 1016,5 - 0,0
18.10.2017 17:00:00 18,7 14,8 23 12 46 25 ENE 1016,6 10 0,0
18.10.2017 16:00:00 18,9 14,8 22 12 37 20 ENE 1016,5 - 0,0
18.10.2017 15:00:00 20,0 15,2 17 9 39 21 E 1017,4 - 0,0
18.10.2017 14:00:00 20,1 14,9 22 12 38 20 ENE 1017,9 10 0,0
18.10.2017 13:00:00 20,5 14,4 22 12 40 21 ENE 1018,7 - 0,0
18.10.2017 12:00:00 20,1 14,2 18 10 37 20 ENE 1019,1 - 0,0
18.10.2017 11:00:00 18,0 14,3 28 15 42 23 NE 1019,1 17 0,0
18.10.2017 10:00:00 15,1 14,0 22 12 36 20 NE 1019,6 - 0,0
18.10.2017 09:00:00 12,8 12,5 19 10 33 18 NE 1019,8 - 0,0
18.10.2017 08:00:00 12,2 11,9 17 9 23 12 NE 1019,7 10 0,0
18.10.2017 07:00:00 12,0 11,5 17 9 29 16 ENE 1019,8 - 0,2
18.10.2017 06:00:00 12,5 12,0 19 10 25 14 ENE 1020,0 - 0,0
18.10.2017 05:00:00 12,8 12,3 11 6 22 12 ENE 1020,6 15 0,0
18.10.2017 04:00:00 13,2 12,7 10 5 20 11 ENE 1020,9 - 0,0
18.10.2017 03:00:00 13,6 13,0 14 8 23 12 ENE 1021,3 - 0,0
18.10.2017 02:00:00 13,9 13,3 11 6 19 11 ENE 1021,7 - 0,0
18.10.2017 01:00:00 14,4 13,6 11 6 15 8 ENE 1022,0 - 0,2
18.10.2017 00:00:00 15,1 14,3 10 5 17 9 NE 1022,3 - 0,0
17.10.2017 23:00:00 15,5 14,7 10 6 15 8 NE 1022,5 - 0,0
17.10.2017 22:00:00 16,1 15,0 10 5 14 8 ENE 1022,1 - 0,0
17.10.2017 21:00:00 16,1 15,1 7 4 11 6 ESE 1022,2 - 0,0
17.10.2017 20:00:00 16,1 15,0 8 4 15 8 SE 1022,4 20 0,0
17.10.2017 19:00:00 16,5 14,5 9 5 15 8 SE 1022,1 - 0,0
17.10.2017 18:00:00 18,5 14,6 11 6 16 8 SSE 1022,4 - 0,0
17.10.2017 17:00:00 20,1 14,9 8 4 17 9 SE 1022,8 - 0,0
17.10.2017 16:00:00 19,7 14,5 10 5 19 10 SSE 1023,3 - 0,0
17.10.2017 15:00:00 21,0 15,5 11 6 21 11 SSE 1023,7 - 0,0
17.10.2017 14:00:00 20,9 14,8 8 5 18 10 SSE 1024,3 20 0,0
17.10.2017 13:00:00 19,8 14,4 7 4 16 9 SE 1025,0 - 0,0
17.10.2017 12:00:00 19,3 14,3 9 5 16 9 ENE 1025,3 - 0,0
17.10.2017 11:00:00 17,0 13,7 12 6 23 12 NE 1025,7 - 0,0
17.10.2017 10:00:00 15,9 13,4 14 8 19 11 NE 1025,7 - 0,0
17.10.2017 09:00:00 14,1 12,8 4 2 14 8 E 1025,8 - 0,0
17.10.2017 08:00:00 13,5 12,7 11 6 18 10 ENE 1025,6 12 0,0
17.10.2017 07:00:00 12,7 11,8 13 7 20 11 ENE 1025,7 - 0,0
17.10.2017 06:00:00 13,1 12,3 5 3 15 8 NE 1025,6 - 0,0
17.10.2017 05:00:00 13,5 12,1 10 6 13 7 ENE 1025,8 15 0,0
17.10.2017 04:00:00 14,0 12,4 10 5 14 8 ENE 1025,9 - 0,2
17.10.2017 03:00:00 15,0 14,4 3 2 5 3 NNE 1026,3 - 0,0
17.10.2017 02:00:00 14,8 13,8 3 2 9 5 N 1026,7 - 0,0
17.10.2017 01:00:00 15,6 14,8 3 2 9 5 W 1026,8 - 0,0
17.10.2017 00:00:00 15,6 14,8 7 4 10 6 WNW 1026,8 - 0,0
16.10.2017 23:00:00 15,3 14,3 8 4 11 6 WNW 1027,1 - 0,0
16.10.2017 22:00:00 16,1 15,0 10 6 15 8 W 1026,8 - 0,2
16.10.2017 21:00:00 16,5 14,9 11 6 20 11 W 1026,8 - 0,0
16.10.2017 20:00:00 16,7 14,9 16 8 22 12 W 1026,9 - 0,0
16.10.2017 19:00:00 17,4 15,0 13 7 19 10 W 1026,7 - 0,0
16.10.2017 18:00:00 19,6 15,5 14 7 24 13 SW 1026,5 - 0,0
16.10.2017 17:00:00 20,6 15,2 17 9 28 15 SSW 1026,5 25 0,0
16.10.2017 16:00:00 21,4 15,2 15 8 28 15 SSW 1026,7 - 0,0
16.10.2017 15:00:00 21,8 15,2 16 9 26 14 SSW 1027,2 - 0,0
16.10.2017 14:00:00 21,9 15,0 11 6 24 13 SSW 1027,9 - 0,0
16.10.2017 13:00:00 21,4 14,8 6 3 15 8 SSW 1028,4 - 0,0
16.10.2017 12:00:00 19,3 14,1 8 4 14 8 NE 1028,9 - 0,0
16.10.2017 11:00:00 17,6 14,7 6 3 13 7 ENE 1029,0 12 0,0
16.10.2017 10:00:00 15,5 14,2 4 2 9 5 E 1029,1 - 0,0
16.10.2017 09:00:00 14,8 14,2 4 2 18 10 ENE 1028,6 - 0,0
16.10.2017 08:00:00 14,8 14,2 16 8 21 11 NE 1028,1 - 0,0
16.10.2017 07:00:00 14,8 14,0 16 9 26 14 NE 1027,7 - 0,0
16.10.2017 06:00:00 14,4 12,3 13 7 23 12 ENE 1027,5 - 0,0
16.10.2017 05:00:00 16,1 13,2 6 4 9 5 ENE 1027,1 - 0,0
16.10.2017 04:00:00 15,7 13,7 6 3 9 5 ENE 1027,4 - 0,0
16.10.2017 03:00:00 16,0 14,7 4 2 8 5 NW 1027,8 - 0,0
16.10.2017 02:00:00 15,8 15,2 6 3 12 7 NW 1027,9 - 0,2
16.10.2017 01:00:00 15,3 14,7 8 4 18 10 WNW 1028,2 - 0,0
16.10.2017 00:00:00 15,9 15,4 12 6 18 10 W 1028,3 - 0,0
15.10.2017 23:00:00 16,7 16,2 11 6 19 10 W 1028,3 - 0,0
15.10.2017 22:00:00 17,0 16,4 15 8 24 13 W 1028,0 - 0,0
15.10.2017 21:00:00 17,2 16,2 14 8 22 12 W 1027,9 - 0,0
15.10.2017 20:00:00 17,2 15,4 12 6 18 10 W 1027,9 - 0,0
15.10.2017 19:00:00 17,9 15,9 13 7 24 13 SW 1027,5 - 0,0

tt = Température de l'air
td = dewpoint
ff = Vitesse du vent
fx = gusts
dd = Direction du vent
ppp = reduced air pressure
vv = visibility
rr = Quantités de précipitations

stations d'obs. à proximité